This is the latest recevied weather packets stored in our database for station/object N8QQQ. If no packets are shown the sender has not sent any weather packets the latest 10 day(s).
| Time | Temp. | Humidity | Pressure | Rain* | Wind** | Luminosity | Snow |
|---|---|---|---|---|---|---|---|
| 1777432904 | -0.56° C | 98% | 1015.1 hPa | 0 mm | - | 0 W/m² | - |
| 1777432603 | -0.56° C | 98% | 1014.8 hPa | 0 mm | - | 0 W/m² | - |
| 1777432300 | 0° C | 98% | 1015 hPa | 0 mm | - | 0 W/m² | - |
| 1777431999 | 0° C | 98% | 1014.8 hPa | 0 mm | - | 0 W/m² | - |
| 1777431696 | 0° C | 98% | 1014.8 hPa | 0 mm | - | 0 W/m² | - |
| 1777431392 | 0.56° C | 97% | 1014.9 hPa | 0 mm | - | 0 W/m² | - |
| 1777431087 | 0.56° C | 97% | 1015 hPa | 0 mm | - | 0 W/m² | - |
| 1777430783 | 0.56° C | 97% | 1014.9 hPa | 0 mm | - | 0 W/m² | - |
| 1777430480 | 0.56° C | 96% | 1014.9 hPa | 0 mm | - | 0 W/m² | - |
| 1777430175 | 1.11° C | 96% | 1014.8 hPa | 0 mm | - | 0 W/m² | - |
| 1777429870 | 1.11° C | 96% | 1015 hPa | 0 mm | - | 0 W/m² | - |
| 1777429568 | 1.67° C | 96% | 1014.9 hPa | 0 mm | - | 0 W/m² | - |
| 1777429264 | 1.67° C | 96% | 1014.8 hPa | 0 mm | - | 0 W/m² | - |
| 1777428959 | 1.67° C | 95% | 1014.7 hPa | 0 mm | - | 0 W/m² | - |
| 1777428655 | 2.22° C | 94% | 1014.7 hPa | 0 mm | - | 0 W/m² | - |
| 1777428351 | 2.22° C | 93% | 1014.6 hPa | 0 mm | - | 0 W/m² | - |
| 1777428047 | 2.78° C | 92% | 1014.6 hPa | 0 mm | - | 0 W/m² | - |
| 1777427742 | 2.78° C | 92% | 1014.4 hPa | 0 mm | - | 0 W/m² | - |
| 1777427440 | 2.78° C | 91% | 1014.6 hPa | 0 mm | - | 0 W/m² | - |
| 1777427135 | 2.78° C | 91% | 1014.4 hPa | 0 mm | - | 0 W/m² | - |
| 1777426834 | 3.33° C | 90% | 1014.3 hPa | 0 mm | - | 0 W/m² | - |
| 1777426530 | 3.33° C | 89% | 1014.1 hPa | 0 mm | - | 0 W/m² | - |
| 1777426226 | 3.33° C | 88% | 1014.2 hPa | 0 mm | - | 0 W/m² | - |
| 1777425921 | 3.89° C | 87% | 1013.8 hPa | 0 mm | - | 0 W/m² | - |
| 1777425617 | 3.89° C | 87% | 1013.9 hPa | 0 mm | - | 0 W/m² | - |
* Rain latest hour (hover to see other rain measurements)
** Current wind speed in m/s (hover to see current wind gust speed)